RH
35 43 46 34 34 29 29 32 34 32 28 29 35 48 39 56 95 84 80 86 92 87 79 89 91 100 96 97 99 100 99 100 87 98 72 93 85 80 67 57 57 55 63 56
37 44 34 30 33 32 33 35 38 34 30 34 37 42 44 66 78 77 70 72 79 92 81 93 96 99 97 92 96 98 100 100 87 78 97 74 78 68 57 67 64 67 56 67
41 36 28 32 38 38 39 41 40 38 36 31 40 44 40 47 60 68 75 66 70 79 80 84 96 99 91 98 96 94 96 100 100 83 90 93 83 72 65 80 63 54 55 75
40 33 32 34 35 34 41 35 34 37 36 45 35 58 34 36 56 70 69 76 70 70 81 76 73 75 77 86 98 97 97 99 98 99 82 83 72 74 80 67 57 63 54 76
44 43 37 38 36 32 31 34 38 38 42 38 38 45 39 59 45 49 64 59 57 57 65 70 65 54 55 64 86 99 100 97 96 95 88 77 83 86 91 66 55 54 60 62
35 31 35 31 30 32 29 32 36 47 48 59 44 43 49 40 41 38 42 45 40 50 58 64 67 58 54 53 67 85 93 96 100 92 78 79 80 75 81 74 69 66 55 54
33 37 28 25 32 34 33 40 55 55 67 66 44 50 41 35 34 40 37 37 36 40 49 54 65 56 49 46 44 59 77 90 98 94 87 86 73 69 66 62 57 59 56 56
39 42 33 28 32 36 41 41 63 60 68 53 52 62 42 33 31 26 28 31 36 45 47 45 48 50 45 40 39 42 54 71 83 87 87 81 78 73 68 62 56 52 50 57
44 40 29 30 29 27 36 46 38 62 73 79 60 46 36 29 29 28 40 43 42 40 42 40 43 49 46 45 38 36 41 47 62 66 66 66 66 69 71 70 69 67 61 60
42 45 34 28 26 28 32 36 52 63 75 78 59 58 44 33 31 30 33 49 41 40 41 44 42 40 43 46 45 39 36 35 40 44 53 56 57 60 63 63 63 60 55 48
35 40 39 30 35 36 36 40 42 51 64 60 62 60 47 36 34 37 31 26 28 35 33 34 36 34 37 44 47 47 42 40 34 37 38 39 37 37 41 43 44 44 47 49
39 46 51 36 31 29 30 40 41 57 54 70 72 45 30 36 34 36 33 22 17 18 22 28 33 43 43 46 46 47 49 46 43 36 35 37 41 39 36 37 40 46 50 54
53 53 60 53 38 34 36 35 36 51 56 66 64 52 34 35 34 30 27 20 21 20 18 24 32 31 34 40 44 46 45 41 46 50 47 44 39 38 42 47 45 47 50 53
66 60 59 62 51 40 41 38 34 44 63 56 64 43 34 36 36 30 27 22 21 21 20 20 25 25 26 30 32 35 35 38 47 50 52 52 51 50 46 49 53 55 58 60
67 73 81 72 59 51 42 38 38 42 44 50 39 50 38 35 35 32 20 19 21 21 20 18 22 22 23 27 28 30 30 30 38 48 54 53 52 54 58 61 62 65 68 72
66 75 80 66 66 62 60 40 38 39 40 44 43 45 36 32 29 30 25 24 26 22 20 18 16 21 23 22 22 22 23 27 31 35 35 40 59 63 61 61 66 71 70 78
78 82 89 84 78 70 64 47 45 39 37 39 44 42 35 36 39 36 27 24 22 22 21 20 19 15 16 20 19 22 20 29 32 31 34 42 51 65 70 73 74 81 85 89
83 86 98 98 75 92 57 42 46 46 41 39 39 36 33 34 25 26 21 18 22 21 17 20 20 18 16 20 22 21 24 28 30 32 35 39 48 61 75 81 85 94 99 100
85 89 98 98 86 66 52 40 48 61 56 39 40 35 32 25 24 24 19 18 18 18 16 16 21 19 15 17 20 27 28 30 35 38 42 44 48 61 70 85 92 100 99 100
91 80 82 98 95 85 53 58 59 62 56 53 51 44 41 32 46 40 17 17 17 17 17 16 16 20 21 17 18 22 35 36 40 46 48 49 60 73 80 97 100 97 100 100
93 99 90 91 80 82 66 63 61 71 53 78 74 68 54 52 46 33 31 25 23 23 19 17 17 16 17 18 19 24 35 40 46 52 58 69 83 99 100 98 100 100 100 100
81 94 99 96 99 92 57 63 66 64 65 65 61 68 64 52 40 36 36 31 29 26 21 22 18 23 24 25 29 32 35 45 60 68 77 88 89 96 99 100 99 100 100 100
73 76 87 83 85 62 59 49 34 46 55 49 54 44 50 60 49 43 38 39 37 30 33 32 28 37 28 36 39 41 50 65 78 87 92 95 93 100 100 100 100 100 100 100
59 65 73 68 52 62 52 50 58 58 50 41 38 40 43 57 50 42 44 39 44 48 52 50 62 50 46 41 52 61 76 85 93 94 96 97 100 100 100 100 100 100 100 100
59 67 69 75 73 72 62 65 85 72 72 64 42 45 50 56 53 43 46 45 42 49 58 63 66 75 57 45 76 94 94 96 95 93 94 98 100 100 100 99 99 98 94 93
95 87 89 85 92 96 90 87 81 77 85 79 71 64 62 53 55 44 64 56 50 49 52 62 72 83 85 88 94 99 100 99 99 96 98 100 99 98 96 96 96 98 99 100
Wind_Speed
9 5 11 12 5 4 4 2 3 7 5 2 8 9 15 8 15 15 18 18 17 12 9 6 6 9 13 13 16 19 25 30 31 33 38 36 37 37 36 38 38 34 28 29
3 13 8 8 7 6 3 2 7 10 7 6 8 10 8 5 7 18 22 21 19 15 15 13 11 14 14 13 13 15 22 30 38 37 36 38 34 36 36 35 34 32 27 21
8 5 13 9 6 7 6 6 5 8 8 4 2 7 6 4 7 9 20 21 20 20 20 19 17 16 15 19 19 18 19 27 39 39 42 39 36 38 41 34 36 38 33 26
7 6 5 5 12 9 7 10 10 7 2 4 3 5 6 4 7 7 16 23 24 22 22 19 17 15 14 17 20 21 22 27 34 43 42 44 41 41 43 43 38 35 33 27
8 9 13 6 6 8 9 6 8 5 5 1 3 2 7 3 7 8 11 25 25 25 24 24 21 15 14 14 20 22 24 25 32 39 40 47 46 41 36 41 40 40 42 35
7 2 8 11 6 11 4 4 2 3 3 2 7 5 5 4 9 5 5 25 28 26 26 24 21 18 17 15 17 22 26 30 32 35 37 43 49 46 43 43 41 45 40 45
1 6 2 3 5 4 4 4 1 2 0 5 3 2 10 9 9 10 9 18 27 28 27 26 27 25 22 22 20 21 25 31 34 36 38 40 45 46 45 47 48 47 44 47
9 3 8 5 8 7 7 7 5 6 3 4 1 5 6 6 11 15 18 21 18 23 27 28 28 27 25 25 25 25 26 28 33 35 37 38 40 41 45 47 50 50 50 47
6 5 3 5 6 12 5 4 6 6 2 2 4 6 9 8 9 4 5 8 17 20 25 29 29 30 29 28 29 29 29 28 31 33 35 39 40 41 42 44 44 46 48 46
6 1 4 3 4 3 7 7 3 1 5 4 3 3 5 8 9 9 5 9 15 19 22 26 29 29 31 32 30 30 31 30 30 31 35 37 39 41 41 41 46 45 44 42
3 3 4 3 4 7 3 3 2 4 4 5 3 5 7 10 7 8 9 14 15 18 22 24 28 29 29 32 35 35 35 34 35 35 34 35 38 38 39 41 42 44 44 43
5 3 5 10 6 2 4 7 9 4 4 3 3 8 4 9 6 7 12 14 11 13 20 21 24 28 31 33 35 38 38 38 38 37 38 40 41 42 41 44 45 47 46 45
4 2 2 7 4 3 4 6 5 2 3 7 6 5 3 7 6 10 12 16 10 8 14 20 23 25 28 32 33 36 39 41 41 41 42 44 43 42 50 52 53 51 50 46
1 1 1 2 2 2 3 7 10 8 4 3 5 5 5 7 8 8 14 17 19 15 15 19 23 26 27 28 28 31 32 35 43 47 46 47 46 47 48 51 47 47 48 49
2 2 2 4 4 6 12 9 6 9 6 8 5 8 9 12 11 16 24 21 22 21 19 20 23 25 26 28 29 30 31 30 34 39 46 50 52 48 49 52 53 49 45 41
4 1 1 3 10 12 6 9 10 8 5 6 7 8 10 16 18 14 28 29 28 26 22 24 28 29 30 30 30 30 30 33 32 32 34 36 42 47 54 55 53 50 47 44
4 2 2 1 5 11 4 3 6 9 10 7 12 8 9 6 8 14 25 27 28 34 33 27 29 30 33 36 34 33 32 34 33 31 32 34 36 37 39 44 50 51 48 47
6 3 2 2 3 2 5 11 7 7 11 7 6 5 7 10 22 18 17 16 22 24 28 35 35 34 34 38 39 37 38 34 33 33 32 32 33 35 35 35 38 40 40 42
11 4 4 3 3 4 9 2 4 3 9 6 8 12 12 26 10 10 9 2 7 15 22 24 28 32 29 33 38 43 38 35 34 34 32 30 31 32 32 33 35 35 32 32
6 1 3 2 3 4 4 3 9 5 11 10 15 12 13 6 4 6 20 19 10 13 22 22 22 27 31 30 31 40 38 35 32 31 29 28 28 28 29 29 31 30 30 29
4 3 9 4 5 6 5 5 4 0 7 12 19 24 17 5 8 21 25 23 21 22 22 23 23 24 25 26 25 28 34 31 30 28 26 25 22 20 18 18 20 22 23 25
5 5 3 3 1 9 6 2 3 4 9 12 23 23 24 31 28 26 25 23 23 23 21 17 9 11 13 15 17 20 22 23 22 21 19 16 14 13 13 16 20 23 27 28
2 6 5 7 7 4 5 7 15 10 7 15 17 34 27 29 26 26 29 32 22 22 21 20 14 14 12 11 11 11 14 16 16 14 14 15 14 15 17 19 23 25 23 20
3 4 3 1 3 5 13 16 20 21 29 29 21 25 27 36 31 20 23 26 28 18 12 10 11 9 8 8 10 12 12 13 13 13 14 15 16 15 15 16 16 16 17 17
5 4 4 5 4 12 0 21 22 27 25 23 30 32 27 28 27 25 20 21 17 22 16 10 4 7 3 11 12 8 9 11 13 14 15 16 16 17 16 14 11 9 9 8
2 1 2 4 2 4 8 17 14 20 23 18 13 8 6 11 17 17 15 11 14 16 19 15 8 7 4 9 10 10 11 12 13 15 16 16 16 16 16 16 16 15 14 14
Wind_Direction
182 151 203 193 166 152 145 209 271 260 231 287 269 259 272 211 212 225 233 230 219 217 205 223 209 181 175 180 201 205 200 194 187 187 179 186 186 186 187 186 186 184 187 187
131 223 185 166 176 176 192 275 277 290 267 178 291 280 273 185 216 218 229 231 227 205 202 212 204 200 188 188 195 200 211 199 187 187 188 183 187 185 183 188 185 184 190 196
196 215 168 164 167 171 201 191 238 228 346 285 334 298 279 263 233 225 228 237 236 223 206 208 206 198 196 194 198 197 197 200 183 189 187 189 184 187 190 193 189 193 202 216
227 231 125 150 205 171 225 198 235 258 78 260 106 272 292 284 275 220 222 222 228 226 222 219 215 208 211 200 196 201 201 197 196 191 190 191 191 195 200 203 206 208 226 220
225 179 190 181 199 163 235 155 194 231 207 186 264 275 268 344 285 258 221 227 226 227 226 224 221 218 210 207 194 201 199 197 201 202 202 199 200 203 191 207 207 212 216 222
214 177 166 217 181 183 126 192 146 74 117 223 243 160 265 224 230 247 210 224 232 221 220 225 223 218 212 208 207 194 195 199 203 203 202 203 202 203 205 203 208 211 220 229
190 224 254 172 117 180 128 105 292 346 290 225 229 168 252 262 259 241 249 243 231 225 218 216 216 211 212 208 210 206 199 199 202 203 209 209 206 209 213 216 219 221 228 233
200 235 189 200 176 170 177 165 158 204 196 240 116 242 254 246 268 272 273 267 242 221 219 220 218 218 217 215 213 213 210 205 206 207 210 212 215 218 223 225 225 228 235 233
162 246 207 200 172 162 202 161 193 101 33 55 229 287 310 305 305 296 303 220 226 222 222 221 222 220 223 223 219 218 216 212 213 214 215 217 220 223 227 226 226 230 230 235
195 183 205 224 118 211 166 164 105 8 168 216 258 261 230 304 295 306 271 235 233 230 231 229 227 229 228 229 229 225 226 223 220 220 221 221 222 225 228 229 228 229 230 233
147 96 290 75 168 169 152 188 138 142 144 194 208 250 213 232 265 281 279 251 245 240 238 237 238 238 235 232 231 230 229 228 227 225 226 227 225 225 227 229 228 231 233 239
200 170 225 257 253 185 179 196 185 184 226 211 195 238 225 230 233 271 277 289 265 258 251 246 244 243 241 237 235 234 233 233 235 233 231 231 230 228 233 235 236 237 240 244
3 225 265 326 323 20 195 188 191 133 122 199 218 264 290 279 269 250 263 283 273 286 252 245 241 243 246 245 244 242 238 239 239 236 236 235 235 235 236 238 239 241 246 252
321 36 186 207 290 246 207 205 208 197 197 185 210 227 257 254 250 263 236 247 264 283 290 250 243 244 244 245 245 245 246 246 242 242 239 240 240 239 242 248 248 250 254 257
31 185 35 296 335 304 260 247 232 208 211 219 218 213 237 232 224 234 251 261 260 265 278 269 242 241 241 241 238 241 242 244 245 246 246 246 245 243 245 247 252 253 257 261
347 240 88 291 344 339 301 264 255 254 226 242 237 253 233 245 252 268 263 264 269 268 265 262 250 247 247 239 234 231 236 239 241 245 250 254 252 248 246 249 252 253 253 256
287 170 88 250 352 332 0 351 278 265 247 200 246 217 253 258 240 241 254 259 263 267 267 262 266 250 246 241 240 237 240 240 242 245 251 254 255 254 249 250 253 255 254 252
274 128 93 221 40 276 236 318 243 269 279 274 298 234 228 237 263 259 257 270 270 271 274 263 263 253 248 244 240 241 243 244 245 246 248 253 256 255 255 253 252 253 256 251
209 158 165 165 193 295 302 56 22 59 301 289 270 263 251 261 259 250 227 234 303 310 301 288 269 248 245 250 246 241 239 240 244 246 249 251 253 252 254 255 255 255 249 246
139 135 150 164 187 242 250 354 346 329 283 3 344 327 299 264 230 245 248 267 287 310 323 299 284 263 248 255 248 241 237 237 241 244 246 247 250 248 250 254 254 254 259 252
171 181 223 205 243 282 232 273 313 195 289 327 336 330 344 334 295 299 299 290 285 300 306 304 288 272 257 250 241 232 229 237 241 242 244 242 245 254 260 249 251 247 237 221
177 172 202 121 162 273 199 100 175 227 295 307 337 324 323 324 347 358 350 330 309 295 294 281 271 266 243 227 223 225 231 237 237 238 243 243 252 252 257 248 235 224 209 204
244 183 186 179 210 262 216 236 287 274 278 295 320 315 300 300 317 338 2 359 338 308 299 264 216 214 215 218 225 236 238 235 234 232 234 238 245 235 234 225 213 204 202 207
259 172 204 165 238 262 305 327 338 316 283 280 287 290 285 289 290 316 338 353 4 347 315 271 270 228 238 240 247 237 236 234 227 222 227 234 222 220 215 208 202 202 198 197
211 134 203 267 341 331 54 343 336 329 332 293 276 272 274 277 296 291 306 327 349 8 355 334 291 260 247 298 272 241 228 224 223 227 227 228 221 215 205 199 193 201 205 215
353 256 189 245 25 279 271 336 345 349 349 349 325 259 249 267 291 301 316 335 347 352 5 3 334 290 245 216 219 223 216 216 219 211 207 207 211 205 202 203 198 195 202 203